Tracking 25964 objects as of 11-Aug-2022
HD Live streaming from Space Station
objects crossing your sky now

ONEWEB-0095

Track ONEWEB-0095 now!
10-day predictions
ONEWEB-0095 is classified as:


NORAD ID: 45436
Int'l Code: 2020-020N
Perigee: 1,223.6 km
Apogee: 1,226.1 km
Inclination: 87.9 °
Period: 109.8 minutes
Semi major axis: 7595 km
RCS: Unknown
Launch date: March 21, 2020
Source: United Kingdom (UK)
Launch site: TYURATAM MISSILE AND SPACE COMPLEX (TTMTR)
aabbcc
Your satellite tracking list
Your tracking list is empty




NASA's NSSDC Master Catalog

Two Line Element Set (TLE):
1 45436U 20020N   22223.12851786  .00000563  00000-0  15527-2 0  9991
2 45436  87.8860 300.5800 0001656 105.2139 254.9172 13.11414643118385
Source of the keplerian elements: AFSPC